{"data":{"norad_id":56521,"intl_designator":"2023-065U","name":"STARLINK-6333","alt_names":[],"object_type":"PAYLOAD","status":"ACTIVE","operator":null,"country":"US","launch_date":"2023-05-14","launch_site_code":"AFETR","launch_vehicle":null,"mission":null,"orbit_class":"UNKNOWN","rcs_meters":null,"size_class":null,"mass_kg":null,"dimensions":null,"purposes":["comms"],"wikipedia_slug":null,"has_3d_model":false,"image_url":null,"decayed_at":null,"tle_current":{"epoch":"2026-09-19T22:17:53.357856Z","epoch_age_seconds":164246,"freshness":"FRESH","line1":"1 56521U 23065U   26262.92908979 -.00000184  00000+0  28242-5 0  9992","line2":"2 56521  43.0016 199.1287 0000543 203.5429 156.5398 15.27575168186266","mean_motion":15.27575168,"eccentricity":5.43e-5,"inclination_deg":43.0016,"raan_deg":199.1287,"arg_perigee_deg":203.5429,"mean_anomaly_deg":156.5398,"bstar":2.8242e-6,"rev_number":18626,"period_min":94.267046896641,"perigee_km":482.69100163343,"apogee_km":483.43612801477,"semimajor_km":6861.2005648241,"source":"CELESTRAK","updated_at":"2026-09-21T09:00:33.472646Z"}}}